Regional Weather Roundup
Issued by NWS

Home | Current Version | Previous Version | Graphics & Text | Print | Product List | Glossary Off
Versions: 1 2 3 4 5 6 7 8 9 10 11 12 13 14 15 16 17 18 19 20 21 22 23 24 25 26 27 28 29 30 31 32 33 34 35 36 37 38 39 40 41 42 43 44 45 46 47 48 49 50

519
ASUS43 KLSX 092107
RWRMO

WEATHER SUMMARY FOR MISSOURI
NATIONAL WEATHER SERVICE SPRINGFIELD MO
300 PM CST FRI DEC 09 2016

NOTE: "FAIR" INDICATES FEW OR NO CLOUDS BELOW 12,000 FEET WITH NO
       SIGNIFICANT WEATHER AND/OR OBSTRUCTIONS TO VISIBILITY.
       CURRENT SKY AND/OR WEATHER CONDITIONS ARE NOT AVAILABLE FOR
       CHILLICOTHE AND FARMINGTON.

MOZ001>031-035>038-043-044-053-054-092200-
...NORTHERN AND WESTERN MISSOURI...

CITY           SKY/WX    TMP DP  RH WIND       PRES   REMARKS
KANSAS CTY INT PTSUNNY   27   8  44 SE6       30.52F WCI  20
KANSAS C DTWN  CLOUDY    29   9  43 S6        30.53F WCI  23
LEE`S SUMMIT   PTSUNNY   27   9  46 SE6       30.53F WCI  20
ST JOSEPH      CLOUDY    26   9  48 S3        30.55F
CHILLICOTHE      N/A     27   7  42 CALM      30.57F
KIRKSVILLE     CLOUDY    26   7  44 NW6       30.55S WCI  19

$$
MOZ066>068-077>081-088>096-101>105-092200-
...SOUTHWEST MISSOURI...

CITY           SKY/WX    TMP DP  RH WIND       PRES   REMARKS
SPRINGFIELD    SUNNY     32   8  36 CALM      30.51F
JOPLIN         CLOUDY    32  12  43 E7        30.53F WCI  26
BRANSON        PTSUNNY   32   9  37 E6        30.53F WCI  26

$$
MOZ032>034-039>042-045>050-055>058-069>072-092200-
...CENTRAL MISSOURI...

CITY           SKY/WX    TMP DP  RH WIND       PRES   REMARKS
COLUMBIA       SUNNY     28   8  43 N3        30.56F
JEFFERSON CITY SUNNY     28   9  44 CALM      30.58F
ROLLA          SUNNY     29   8  41 N3        30.53F
SEDALIA        SUNNY     28   4  35 CALM      30.56F
WHITEMAN AFB   MOSUNNY   28   6  39 VRB5      30.54  WCI  23
WARRENSBURG    MOSUNNY   28   9  43 CALM      30.55F
OSAGE BEACH    PTSUNNY   30  11  45 SW6       30.56F WCI  24

$$
MOZ051-052-059>065-092200-
...EAST CENTRAL MISSOURI...

CITY           SKY/WX    TMP DP  RH WIND       PRES   REMARKS
ST LOUIS INTL  CLOUDY    30  11  45 W8        30.58F WCI  22
SPIRIT OF STL  CLOUDY    31  11  43 N9        30.58F WCI  23
ST CHARLES     CLOUDY    27  14  58 W6        30.59F WCI  20

$$
MOZ072>076-082>087-097>100-106>115-092200-
...SOUTH CENTRAL AND SOUTHEAST MISSOURI...

CITY           SKY/WX    TMP DP  RH WIND       PRES   REMARKS
CAPE GIRARDEAU SUNNY     31  15  52 SW6       30.60S WCI  25
FARMINGTON     SUNNY     30  11  45 W5        30.56S WCI  25
POPLAR BLUFF   SUNNY     33  16  49 SW5       30.59F WCI  29
WEST PLAINS    SUNNY     33  11  39 CALM      30.54F

$$



USA.gov is the U.S. government's official web portal to all federal, state and local government web resources and services.